Time,TemperatureF,DewpointF,PressureIn,WindDirection,WindDirectionDegrees,WindSpeedMPH,WindSpeedGustMPH,Humidity,HourlyPrecipIn,Conditions,Clouds,dailyrainin,SoftwareType,DateUTC
2013-01-27 00:00:00,15.5,10.7,28.41,WNW,293,4.0,10.0,81,0.00,,,1.62,WUHU216DAVISWMX,2013-01-27 05:00:00,
2013-01-27 00:01:00,15.5,10.7,28.40,WNW,292,4.0,10.0,81,0.00,,,1.62,WUHU216DAVISWMX,2013-01-27 05:01:00,
2013-01-27 00:02:00,15.5,10.7,28.41,WNW,287,2.0,10.0,81,0.00,,,1.62,WUHU216DAVISWMX,2013-01-27 05:02:00,
2013-01-27 00:07:00,15.3,10.5,28.41,West,279,0.0,10.0,81,0.00,,,1.62,WUHU216DAVISWMX,2013-01-27 05:07:00,
2013-01-27 00:12:00,15.4,10.1,28.41,West,279,0.0,6.0,79,0.00,,,1.62,WUHU216DAVISWMX,2013-01-27 05:12:00,
2013-01-27 00:17:00,15.4,10.1,28.41,WNW,298,2.0,4.0,79,0.00,,,1.62,WUHU216DAVISWMX,2013-01-27 05:17:00,
2013-01-27 00:22:00,15.3,10.0,28.41,WNW,297,0.0,4.0,79,0.00,,,1.62,WUHU216DAVISWMX,2013-01-27 05:22:00,
2013-01-27 00:27:00,15.3,10.0,28.41,WNW,296,0.0,4.0,79,0.00,,,1.62,WUHU216DAVISWMX,2013-01-27 05:27:00,
2013-01-27 00:32:00,15.2,9.9,28.41,WNW,296,0.0,3.0,79,0.00,,,1.62,WUHU216DAVISWMX,2013-01-27 05:32:00,
2013-01-27 00:37:00,15.2,9.9,28.41,West,277,5.0,8.0,79,0.00,,,1.62,WUHU216DAVISWMX,2013-01-27 05:37:00,
2013-01-27 00:42:00,15.2,9.9,28.41,West,276,0.0,8.0,79,0.00,,,1.62,WUHU216DAVISWMX,2013-01-27 05:42:00,
2013-01-27 00:47:00,15.2,9.9,28.41,West,276,0.0,5.0,79,0.00,,,1.62,WUHU216DAVISWMX,2013-01-27 05:47:00,
2013-01-27 00:52:00,15.0,9.9,28.41,West,276,0.0,0.0,80,0.00,,,1.62,WUHU216DAVISWMX,2013-01-27 05:52:00,
2013-01-27 00:57:00,15.0,9.7,28.41,West,276,0.0,0.0,79,0.00,,,1.62,WUHU216DAVISWMX,2013-01-27 05:57:00,
2013-01-27 01:02:00,15.0,9.9,28.41,West,276,0.0,0.0,80,0.00,,,1.62,WUHU216DAVISWMX,2013-01-27 06:02:00,
2013-01-27 01:07:00,15.1,9.8,28.41,West,276,0.0,0.0,79,0.00,,,1.62,WUHU216DAVISWMX,2013-01-27 06:07:00,
2013-01-27 01:12:00,15.0,9.7,28.41,West,276,0.0,0.0,79,0.00,,,1.62,WUHU216DAVISWMX,2013-01-27 06:12:00,
2013-01-27 01:17:00,15.1,9.8,28.40,West,276,0.0,0.0,79,0.00,,,1.62,WUHU216DAVISWMX,2013-01-27 06:17:00,
2013-01-27 01:22:00,15.0,9.7,28.41,West,276,0.0,0.0,79,0.00,,,1.62,WUHU216DAVISWMX,2013-01-27 06:22:00,
2013-01-27 01:27:00,15.0,9.9,28.41,West,276,0.0,0.0,80,0.00,,,1.62,WUHU216DAVISWMX,2013-01-27 06:27:00,
2013-01-27 02:04:00,13.5,8.5,28.43,WNW,291,0.0,0.0,80,0.00,,,1.62,WUHU216DAVISWMX,2013-01-27 07:04:00,
2013-01-27 02:13:00,13.2,8.5,28.44,West,276,0.0,0.0,81,0.00,,,1.62,WUHU216DAVISWMX,2013-01-27 07:13:00,
2013-01-27 02:18:00,13.0,8.3,28.44,West,276,0.0,0.0,81,0.00,,,1.62,WUHU216DAVISWMX,2013-01-27 07:18:00,
2013-01-27 02:23:00,12.9,8.2,28.43,West,276,0.0,0.0,81,0.00,,,1.62,WUHU216DAVISWMX,2013-01-27 07:23:00,
2013-01-27 02:28:00,12.9,8.2,28.44,West,276,0.0,0.0,81,0.00,,,1.62,WUHU216DAVISWMX,2013-01-27 07:28:00,
2013-01-27 02:33:00,12.8,8.1,28.44,West,276,0.0,0.0,81,0.00,,,1.62,WUHU216DAVISWMX,2013-01-27 07:33:00,
2013-01-27 02:38:00,12.9,8.2,28.43,West,276,0.0,0.0,81,0.00,,,1.62,WUHU216DAVISWMX,2013-01-27 07:38:00,
2013-01-27 02:43:00,12.9,8.2,28.43,West,276,0.0,0.0,81,0.00,,,1.62,WUHU216DAVISWMX,2013-01-27 07:43:00,
2013-01-27 02:48:00,12.8,8.1,28.43,West,276,0.0,0.0,81,0.00,,,1.62,WUHU216DAVISWMX,2013-01-27 07:48:00,
2013-01-27 02:53:00,12.9,8.1,28.43,WNW,299,0.0,0.0,81,0.00,,,1.62,WUHU216DAVISWMX,2013-01-27 07:53:00,
2013-01-27 02:58:00,12.9,8.1,28.43,WNW,299,0.0,0.0,81,0.00,,,1.62,WUHU216DAVISWMX,2013-01-27 07:58:00,
2013-01-27 03:31:00,11.9,7.2,28.44,West,281,0.0,0.0,81,0.00,,,1.62,WUHU216DAVISWMX,2013-01-27 08:31:00,
2013-01-27 03:36:00,11.9,7.2,28.44,West,276,0.0,0.0,81,0.00,,,1.62,WUHU216DAVISWMX,2013-01-27 08:36:00,
2013-01-27 03:41:00,11.9,7.2,28.44,West,276,0.0,0.0,81,0.00,,,1.62,WUHU216DAVISWMX,2013-01-27 08:41:00,
2013-01-27 03:46:00,11.9,7.2,28.44,West,276,0.0,0.0,81,0.00,,,1.62,WUHU216DAVISWMX,2013-01-27 08:46:00,
2013-01-27 03:51:00,11.9,7.2,28.44,West,276,0.0,0.0,81,0.00,,,1.62,WUHU216DAVISWMX,2013-01-27 08:51:00,
2013-01-27 03:56:00,11.9,7.2,28.45,West,276,0.0,0.0,81,0.00,,,1.62,WUHU216DAVISWMX,2013-01-27 08:56:00,
2013-01-27 04:01:00,11.9,7.2,28.44,West,276,0.0,0.0,81,0.00,,,1.62,WUHU216DAVISWMX,2013-01-27 09:01:00,
2013-01-27 04:06:00,11.8,7.1,28.44,West,276,0.0,0.0,81,0.00,,,1.62,WUHU216DAVISWMX,2013-01-27 09:06:00,
2013-01-27 04:10:00,11.9,7.2,28.44,West,279,0.0,0.0,81,0.00,,,1.62,WUHU216DAVISWMX,2013-01-27 09:10:00,
2013-01-27 04:11:00,11.9,7.2,28.44,West,279,0.0,0.0,81,0.00,,,1.62,WUHU216DAVISWMX,2013-01-27 09:11:00,
2013-01-27 04:16:00,11.9,7.2,28.44,West,279,0.0,0.0,81,0.00,,,1.62,WUHU216DAVISWMX,2013-01-27 09:16:00,
2013-01-27 04:55:00,10.4,6.2,28.44,West,278,0.0,0.0,83,0.00,,,1.62,WUHU216DAVISWMX,2013-01-27 09:55:00,
2013-01-27 05:00:00,10.4,6.0,28.44,West,276,0.0,0.0,82,0.00,,,1.62,WUHU216DAVISWMX,2013-01-27 10:00:00,
2013-01-27 05:05:00,10.4,6.0,28.44,West,276,0.0,0.0,82,0.00,,,1.62,WUHU216DAVISWMX,2013-01-27 10:05:00,
2013-01-27 05:10:00,10.1,5.7,28.45,West,276,0.0,0.0,82,0.00,,,1.62,WUHU216DAVISWMX,2013-01-27 10:10:00,
2013-01-27 05:15:00,9.9,5.5,28.45,West,276,0.0,0.0,82,0.00,,,1.62,WUHU216DAVISWMX,2013-01-27 10:15:00,
2013-01-27 05:20:00,9.6,5.2,28.45,West,276,0.0,0.0,82,0.00,,,1.62,WUHU216DAVISWMX,2013-01-27 10:20:00,
2013-01-27 05:25:00,9.4,5.0,28.45,West,276,0.0,0.0,82,0.00,,,1.62,WUHU216DAVISWMX,2013-01-27 10:25:00,
2013-01-27 05:30:00,9.2,4.8,28.45,West,276,0.0,0.0,82,0.00,,,1.62,WUHU216DAVISWMX,2013-01-27 10:30:00,
2013-01-27 05:35:00,8.9,4.5,28.45,West,276,0.0,0.0,82,0.00,,,1.62,WUHU216DAVISWMX,2013-01-27 10:35:00,
2013-01-27 05:40:00,8.7,4.1,28.45,West,276,0.0,0.0,81,0.00,,,1.62,WUHU216DAVISWMX,2013-01-27 10:40:00,
2013-01-27 05:45:00,8.7,4.1,28.45,West,276,0.0,0.0,81,0.00,,,1.62,WUHU216DAVISWMX,2013-01-27 10:45:00,
2013-01-27 05:50:00,8.7,4.1,28.45,West,276,0.0,0.0,81,0.00,,,1.62,WUHU216DAVISWMX,2013-01-27 10:50:00,
2013-01-27 05:55:00,8.7,4.1,28.45,West,276,0.0,0.0,81,0.00,,,1.62,WUHU216DAVISWMX,2013-01-27 10:55:00,
2013-01-27 06:00:00,8.7,4.3,28.45,West,276,0.0,0.0,82,0.00,,,1.62,WUHU216DAVISWMX,2013-01-27 11:00:00,
2013-01-27 06:05:00,8.7,4.1,28.45,West,276,0.0,0.0,81,0.00,,,1.62,WUHU216DAVISWMX,2013-01-27 11:05:00,
2013-01-27 06:09:00,8.7,4.0,28.45,West,277,0.0,0.0,81,0.00,,,1.62,WUHU216DAVISWMX,2013-01-27 11:09:00,
2013-01-27 06:10:00,8.7,4.0,28.45,West,277,0.0,0.0,81,0.00,,,1.62,WUHU216DAVISWMX,2013-01-27 11:10:00,
2013-01-27 06:15:00,8.7,4.0,28.45,West,277,0.0,0.0,81,0.00,,,1.62,WUHU216DAVISWMX,2013-01-27 11:15:00,
2013-01-27 06:53:00,6.9,2.6,28.47,WNW,291,0.0,0.0,82,0.00,,,1.62,WUHU216DAVISWMX,2013-01-27 11:53:00,
2013-01-27 06:58:00,6.5,2.2,28.47,West,276,0.0,0.0,82,0.00,,,1.62,WUHU216DAVISWMX,2013-01-27 11:58:00,
2013-01-27 07:03:00,6.0,1.4,28.48,West,277,0.0,0.0,81,0.00,,,1.62,WUHU216DAVISWMX,2013-01-27 12:03:00,
2013-01-27 07:07:00,5.4,1.1,28.48,West,276,0.0,0.0,82,0.00,,,1.62,WUHU216DAVISWMX,2013-01-27 12:07:00,
2013-01-27 07:12:00,4.9,0.3,28.48,West,276,0.0,0.0,81,0.00,,,1.62,WUHU216DAVISWMX,2013-01-27 12:12:00,
2013-01-27 07:17:00,4.9,0.3,28.48,West,277,0.0,0.0,81,0.00,,,1.62,WUHU216DAVISWMX,2013-01-27 12:17:00,
2013-01-27 07:22:00,4.5,-0.3,28.48,West,277,0.0,0.0,80,0.00,,,1.62,WUHU216DAVISWMX,2013-01-27 12:22:00,
2013-01-27 07:27:00,3.8,-1.0,28.48,West,277,0.0,0.0,80,0.00,,,1.62,WUHU216DAVISWMX,2013-01-27 12:27:00,
2013-01-27 07:33:00,3.3,-1.7,28.49,West,277,0.0,0.0,79,0.00,,,1.62,WUHU216DAVISWMX,2013-01-27 12:33:00,
2013-01-27 07:38:00,3.3,-1.5,28.48,West,277,0.0,3.0,80,0.00,,,1.62,WUHU216DAVISWMX,2013-01-27 12:38:00,
2013-01-27 07:43:00,3.8,-0.7,28.49,West,277,0.0,3.0,81,0.00,,,1.62,WUHU216DAVISWMX,2013-01-27 12:43:00,
2013-01-27 07:48:00,4.3,-0.2,28.48,West,277,0.0,0.0,81,0.00,,,1.62,WUHU216DAVISWMX,2013-01-27 12:48:00,
2013-01-27 07:53:00,4.5,0.0,28.48,West,277,0.0,0.0,81,0.00,,,1.62,WUHU216DAVISWMX,2013-01-27 12:53:00,
2013-01-27 07:57:00,4.4,-0.1,28.48,West,277,0.0,0.0,81,0.00,,,1.62,WUHU216DAVISWMX,2013-01-27 12:57:00,
2013-01-27 08:02:00,4.7,0.1,28.49,West,277,0.0,0.0,81,0.00,,,1.62,WUHU216DAVISWMX,2013-01-27 13:02:00,
2013-01-27 08:07:00,5.1,0.5,28.49,West,277,0.0,0.0,81,0.00,,,1.62,WUHU216DAVISWMX,2013-01-27 13:07:00,
2013-01-27 08:12:00,5.3,0.7,28.49,West,277,0.0,0.0,81,0.00,,,1.62,WUHU216DAVISWMX,2013-01-27 13:12:00,
2013-01-27 08:17:00,5.3,0.7,28.50,West,277,0.0,0.0,81,0.00,,,1.62,WUHU216DAVISWMX,2013-01-27 13:17:00,
2013-01-27 08:22:00,5.3,0.7,28.50,West,277,0.0,0.0,81,0.00,,,1.62,WUHU216DAVISWMX,2013-01-27 13:22:00,
2013-01-27 08:27:00,5.3,0.7,28.50,West,277,0.0,0.0,81,0.00,,,1.62,WUHU216DAVISWMX,2013-01-27 13:27:00,
2013-01-27 08:33:00,5.8,1.2,28.51,West,277,0.0,0.0,81,0.00,,,1.62,WUHU216DAVISWMX,2013-01-27 13:33:00,
2013-01-27 08:37:00,6.0,1.2,28.51,West,277,0.0,0.0,80,0.00,,,1.62,WUHU216DAVISWMX,2013-01-27 13:37:00,
2013-01-27 08:43:00,6.0,1.2,28.50,West,277,0.0,0.0,80,0.00,,,1.62,WUHU216DAVISWMX,2013-01-27 13:43:00,
2013-01-27 08:47:00,6.1,1.0,28.50,West,277,0.0,1.0,79,0.00,,,1.62,WUHU216DAVISWMX,2013-01-27 13:47:00,
2013-01-27 08:52:00,6.0,0.9,28.50,West,280,0.0,1.0,79,0.00,,,1.62,WUHU216DAVISWMX,2013-01-27 13:52:00,
2013-01-27 08:57:00,6.6,1.7,28.50,West,280,0.0,0.0,80,0.00,,,1.62,WUHU216DAVISWMX,2013-01-27 13:57:00,
2013-01-27 09:02:00,7.3,2.4,28.51,West,279,0.0,0.0,80,0.00,,,1.62,WUHU216DAVISWMX,2013-01-27 14:02:00,
2013-01-27 09:08:00,7.4,2.3,28.51,West,280,0.0,0.0,79,0.00,,,1.62,WUHU216DAVISWMX,2013-01-27 14:08:00,
2013-01-27 09:12:00,8.1,2.9,28.51,West,280,0.0,0.0,79,0.00,,,1.62,WUHU216DAVISWMX,2013-01-27 14:12:00,
2013-01-27 09:17:00,8.5,3.3,28.51,West,280,0.0,0.0,79,0.00,,,1.62,WUHU216DAVISWMX,2013-01-27 14:17:00,
2013-01-27 09:22:00,9.2,3.7,28.51,West,280,0.0,1.0,78,0.00,,,1.62,WUHU216DAVISWMX,2013-01-27 14:22:00,
2013-01-27 09:28:00,9.4,3.7,28.50,West,280,0.0,1.0,77,0.00,,,1.62,WUHU216DAVISWMX,2013-01-27 14:28:00,
2013-01-27 09:32:00,9.8,4.1,28.51,West,280,0.0,0.0,77,0.00,,,1.62,WUHU216DAVISWMX,2013-01-27 14:32:00,
2013-01-27 09:37:00,10.8,5.0,28.51,West,280,0.0,0.0,77,0.00,,,1.62,WUHU216DAVISWMX,2013-01-27 14:37:00,
2013-01-27 09:42:00,11.7,5.9,28.51,West,280,0.0,0.0,77,0.00,,,1.62,WUHU216DAVISWMX,2013-01-27 14:42:00,
2013-01-27 09:47:00,12.6,6.5,28.50,West,280,0.0,0.0,76,0.01,,,1.63,WUHU216DAVISWMX,2013-01-27 14:47:00,
2013-01-27 09:52:00,12.6,5.9,28.50,West,281,0.0,0.0,74,0.01,,,1.63,WUHU216DAVISWMX,2013-01-27 14:52:00,
2013-01-27 09:57:00,12.7,6.3,28.50,West,281,0.0,0.0,75,0.01,,,1.63,WUHU216DAVISWMX,2013-01-27 14:57:00,
2013-01-27 10:02:00,13.0,6.3,28.50,West,281,0.0,0.0,74,0.01,,,1.63,WUHU216DAVISWMX,2013-01-27 15:02:00,
2013-01-27 10:07:00,13.3,6.6,28.51,West,281,0.0,0.0,74,0.01,,,1.63,WUHU216DAVISWMX,2013-01-27 15:07:00,
2013-01-27 10:12:00,14.2,7.8,28.51,West,281,0.0,0.0,75,0.01,,,1.63,WUHU216DAVISWMX,2013-01-27 15:12:00,
2013-01-27 10:17:00,15.0,8.8,28.50,WNW,292,0.0,0.0,76,0.01,,,1.63,WUHU216DAVISWMX,2013-01-27 15:17:00,
2013-01-27 10:22:00,15.4,9.2,28.50,WNW,292,0.0,1.0,76,0.02,,,1.64,WUHU216DAVISWMX,2013-01-27 15:22:00,
2013-01-27 10:27:00,15.7,8.9,28.50,WNW,292,0.0,1.0,74,0.02,,,1.64,WUHU216DAVISWMX,2013-01-27 15:27:00,
2013-01-27 10:32:00,15.7,8.9,28.50,WNW,292,0.0,0.0,74,0.02,,,1.64,WUHU216DAVISWMX,2013-01-27 15:32:00,
2013-01-27 10:37:00,15.7,8.9,28.50,WNW,292,0.0,0.0,74,0.02,,,1.64,WUHU216DAVISWMX,2013-01-27 15:37:00,
2013-01-27 10:42:00,15.7,8.9,28.50,WNW,292,0.0,0.0,74,0.02,,,1.64,WUHU216DAVISWMX,2013-01-27 15:42:00,
2013-01-27 10:47:00,15.7,8.9,28.50,WNW,292,0.0,0.0,74,0.01,,,1.64,WUHU216DAVISWMX,2013-01-27 15:47:00,
2013-01-27 10:52:00,15.6,8.8,28.50,WNW,292,0.0,0.0,74,0.01,,,1.64,WUHU216DAVISWMX,2013-01-27 15:52:00,
2013-01-27 10:53:00,15.7,8.9,28.50,WNW,294,0.0,0.0,74,0.01,,,1.64,WUHU216DAVISWMX,2013-01-27 15:53:00,
2013-01-27 10:57:00,15.7,8.9,28.50,WNW,294,0.0,0.0,74,0.01,,,1.64,WUHU216DAVISWMX,2013-01-27 15:57:00,
2013-01-27 11:02:00,15.7,8.9,28.50,WNW,294,0.0,0.0,74,0.01,,,1.64,WUHU216DAVISWMX,2013-01-27 16:02:00,
2013-01-27 11:36:00,18.7,9.6,28.48,East,93,5.0,5.0,67,0.00,,,1.67,WUHU216DAVISWMX,2013-01-27 16:36:00,
2013-01-27 11:41:00,19.0,9.9,28.48,ESE,120,5.0,8.0,67,0.03,,,1.67,WUHU216DAVISWMX,2013-01-27 16:41:00,
2013-01-27 11:46:00,19.2,9.4,28.48,ESE,115,5.0,10.0,65,0.03,,,1.67,WUHU216DAVISWMX,2013-01-27 16:46:00,
2013-01-27 11:51:00,19.3,9.5,28.48,East,98,0.0,10.0,65,0.03,,,1.67,WUHU216DAVISWMX,2013-01-27 16:51:00,
2013-01-27 11:56:00,19.3,9.5,28.47,East,98,0.0,8.0,65,0.00,,,1.67,WUHU216DAVISWMX,2013-01-27 16:56:00,
2013-01-27 12:01:00,19.3,9.5,28.47,East,98,0.0,0.0,65,0.00,,,1.67,WUHU216DAVISWMX,2013-01-27 17:01:00,
2013-01-27 12:06:00,19.3,9.5,28.47,East,98,0.0,0.0,65,0.00,,,1.67,WUHU216DAVISWMX,2013-01-27 17:06:00,
2013-01-27 12:11:00,19.3,9.5,28.46,East,98,0.0,0.0,65,0.00,,,1.67,WUHU216DAVISWMX,2013-01-27 17:11:00,
2013-01-27 12:16:00,19.3,9.5,28.46,East,98,0.0,0.0,65,0.00,,,1.67,WUHU216DAVISWMX,2013-01-27 17:16:00,
2013-01-27 12:19:00,19.3,9.5,28.46,East,98,0.0,0.0,65,0.00,,,1.67,WUHU216DAVISWMX,2013-01-27 17:19:00,
2013-01-27 12:21:00,19.3,9.5,28.46,East,98,0.0,0.0,65,0.00,,,1.67,WUHU216DAVISWMX,2013-01-27 17:21:00,
2013-01-27 12:26:00,19.3,9.5,28.46,East,98,0.0,0.0,65,0.00,,,1.67,WUHU216DAVISWMX,2013-01-27 17:26:00,
2013-01-27 12:43:00,21.6,9.9,28.45,ENE,68,1.0,1.0,60,0.00,,,1.68,WUHU216DAVISWMX,2013-01-27 17:43:00,
2013-01-27 12:48:00,21.9,9.4,28.46,ENE,74,0.0,5.0,58,0.01,,,1.68,WUHU216DAVISWMX,2013-01-27 17:48:00,
2013-01-27 12:53:00,22.2,9.7,28.45,ENE,73,4.0,5.0,58,0.01,,,1.68,WUHU216DAVISWMX,2013-01-27 17:53:00,
2013-01-27 12:58:00,22.5,9.6,28.45,ENE,67,0.0,7.0,57,0.01,,,1.68,WUHU216DAVISWMX,2013-01-27 17:58:00,
2013-01-27 13:03:00,22.8,9.8,28.45,ENE,65,0.0,7.0,57,0.01,,,1.68,WUHU216DAVISWMX,2013-01-27 18:03:00,
2013-01-27 13:08:00,22.9,9.9,28.44,ENE,77,1.0,7.0,57,0.01,,,1.68,WUHU216DAVISWMX,2013-01-27 18:08:00,
2013-01-27 13:13:00,23.2,10.2,28.44,ENE,68,4.0,7.0,57,0.01,,,1.68,WUHU216DAVISWMX,2013-01-27 18:13:00,
2013-01-27 13:18:00,23.5,10.9,28.44,ENE,67,5.0,7.0,58,0.02,,,1.69,WUHU216DAVISWMX,2013-01-27 18:18:00,
2013-01-27 13:23:00,23.6,10.6,28.44,ENE,73,0.0,7.0,57,0.01,,,1.69,WUHU216DAVISWMX,2013-01-27 18:23:00,
2013-01-27 13:28:00,23.8,10.4,28.44,ENE,72,2.0,7.0,56,0.01,,,1.69,WUHU216DAVISWMX,2013-01-27 18:28:00,
2013-01-27 13:33:00,24.0,11.0,28.44,ENE,75,0.0,7.0,57,0.01,,,1.69,WUHU216DAVISWMX,2013-01-27 18:33:00,
2013-01-27 13:38:00,24.4,11.4,28.44,ESE,115,0.0,5.0,57,0.01,,,1.69,WUHU216DAVISWMX,2013-01-27 18:38:00,
2013-01-27 13:43:00,24.5,11.0,28.44,East,84,2.0,5.0,56,0.01,,,1.69,WUHU216DAVISWMX,2013-01-27 18:43:00,
2013-01-27 13:48:00,24.7,11.2,28.44,East,84,0.0,5.0,56,0.01,,,1.69,WUHU216DAVISWMX,2013-01-27 18:48:00,
2013-01-27 13:53:00,25.0,11.1,28.43,ENE,66,0.0,6.0,55,0.01,,,1.69,WUHU216DAVISWMX,2013-01-27 18:53:00,
2013-01-27 13:58:00,25.0,11.5,28.43,ENE,66,0.0,6.0,56,0.01,,,1.69,WUHU216DAVISWMX,2013-01-27 18:58:00,
2013-01-27 14:03:00,25.1,11.2,28.43,ENE,66,1.0,4.0,55,0.01,,,1.69,WUHU216DAVISWMX,2013-01-27 19:03:00,
2013-01-27 14:08:00,25.1,11.2,28.43,ENE,66,7.0,7.0,55,0.01,,,1.69,WUHU216DAVISWMX,2013-01-27 19:08:00,
2013-01-27 14:13:00,25.1,11.2,28.42,East,84,0.0,7.0,55,0.01,,,1.69,WUHU216DAVISWMX,2013-01-27 19:13:00,
2013-01-27 14:18:00,25.4,11.5,28.43,East,84,2.0,7.0,55,0.00,,,1.69,WUHU216DAVISWMX,2013-01-27 19:18:00,
2013-01-27 14:23:00,25.7,11.3,28.43,East,95,4.0,5.0,54,0.01,,,1.70,WUHU216DAVISWMX,2013-01-27 19:23:00,
2013-01-27 14:28:00,25.8,11.4,28.43,East,100,0.0,4.0,54,0.01,,,1.70,WUHU216DAVISWMX,2013-01-27 19:28:00,
2013-01-27 14:33:00,25.7,11.3,28.42,East,100,3.0,4.0,54,0.01,,,1.70,WUHU216DAVISWMX,2013-01-27 19:33:00,
2013-01-27 14:38:00,25.8,11.0,28.42,East,100,0.0,4.0,53,0.01,,,1.70,WUHU216DAVISWMX,2013-01-27 19:38:00,
2013-01-27 14:43:00,26.2,11.8,28.42,East,100,0.0,0.0,54,0.01,,,1.70,WUHU216DAVISWMX,2013-01-27 19:43:00,
2013-01-27 14:48:00,26.6,11.7,28.42,East,100,0.0,0.0,53,0.01,,,1.70,WUHU216DAVISWMX,2013-01-27 19:48:00,
2013-01-27 14:53:00,26.3,11.5,28.42,NNE,28,0.0,7.0,53,0.01,,,1.70,WUHU216DAVISWMX,2013-01-27 19:53:00,
2013-01-27 14:58:00,26.0,11.6,28.42,NE,56,0.0,7.0,54,0.01,,,1.70,WUHU216DAVISWMX,2013-01-27 19:58:00,
2013-01-27 15:03:00,26.2,11.8,28.42,ENE,70,1.0,5.0,54,0.01,,,1.70,WUHU216DAVISWMX,2013-01-27 20:03:00,
2013-01-27 15:08:00,26.3,11.5,28.42,East,80,2.0,5.0,53,0.01,,,1.70,WUHU216DAVISWMX,2013-01-27 20:08:00,
2013-01-27 15:13:00,26.3,11.5,28.42,East,81,0.0,5.0,53,0.01,,,1.70,WUHU216DAVISWMX,2013-01-27 20:13:00,
2013-01-27 15:18:00,26.3,11.5,28.42,East,81,0.0,4.0,53,0.01,,,1.70,WUHU216DAVISWMX,2013-01-27 20:18:00,
2013-01-27 15:23:00,26.3,11.5,28.42,East,81,0.0,0.0,53,0.00,,,1.70,WUHU216DAVISWMX,2013-01-27 20:23:00,
2013-01-27 15:28:00,26.3,11.5,28.42,East,81,0.0,0.0,53,0.00,,,1.70,WUHU216DAVISWMX,2013-01-27 20:28:00,
2013-01-27 15:33:00,26.3,11.5,28.42,East,81,0.0,0.0,53,0.00,,,1.70,WUHU216DAVISWMX,2013-01-27 20:33:00,
2013-01-27 15:38:00,26.3,11.5,28.41,East,81,0.0,0.0,53,0.00,,,1.70,WUHU216DAVISWMX,2013-01-27 20:38:00,
2013-01-27 15:43:00,26.3,11.5,28.41,East,81,0.0,0.0,53,0.00,,,1.70,WUHU216DAVISWMX,2013-01-27 20:43:00,
2013-01-27 15:48:00,26.3,11.5,28.41,ESE,102,0.0,0.0,53,0.00,,,1.70,WUHU216DAVISWMX,2013-01-27 20:48:00,
2013-01-27 16:14:00,27.0,12.1,28.41,East,86,3.0,3.0,53,0.00,,,1.71,WUHU216DAVISWMX,2013-01-27 21:14:00,
2013-01-27 16:19:00,27.0,12.1,28.41,East,84,0.0,5.0,53,0.01,,,1.71,WUHU216DAVISWMX,2013-01-27 21:19:00,
2013-01-27 16:24:00,26.8,11.9,28.41,ESE,112,2.0,5.0,53,0.01,,,1.71,WUHU216DAVISWMX,2013-01-27 21:24:00,
2013-01-27 16:29:00,26.8,11.9,28.41,ENE,74,2.0,5.0,53,0.01,,,1.71,WUHU216DAVISWMX,2013-01-27 21:29:00,
2013-01-27 16:34:00,26.8,12.4,28.41,ENE,74,0.0,5.0,54,0.01,,,1.71,WUHU216DAVISWMX,2013-01-27 21:34:00,
2013-01-27 16:39:00,26.7,11.8,28.41,ENE,65,7.0,7.0,53,0.01,,,1.71,WUHU216DAVISWMX,2013-01-27 21:39:00,
2013-01-27 16:44:00,26.6,12.2,28.41,ENE,71,0.0,7.0,54,0.00,,,1.71,WUHU216DAVISWMX,2013-01-27 21:44:00,
2013-01-27 16:49:00,26.5,12.5,28.41,ENE,71,0.0,7.0,55,0.00,,,1.71,WUHU216DAVISWMX,2013-01-27 21:49:00,
2013-01-27 16:54:00,26.3,12.3,28.41,ENE,71,0.0,5.0,55,0.00,,,1.71,WUHU216DAVISWMX,2013-01-27 21:54:00,
2013-01-27 16:59:00,26.2,12.6,28.41,ENE,71,0.0,5.0,56,0.00,,,1.71,WUHU216DAVISWMX,2013-01-27 21:59:00,
2013-01-27 17:04:00,25.9,12.4,28.41,ENE,71,0.0,5.0,56,0.00,,,1.71,WUHU216DAVISWMX,2013-01-27 22:04:00,
2013-01-27 17:09:00,25.8,12.3,28.41,ENE,71,0.0,5.0,56,0.00,,,1.71,WUHU216DAVISWMX,2013-01-27 22:09:00,
2013-01-27 17:14:00,25.9,12.4,28.41,ENE,71,0.0,5.0,56,0.00,,,1.71,WUHU216DAVISWMX,2013-01-27 22:14:00,
2013-01-27 17:19:00,25.7,12.6,28.41,ENE,71,0.0,5.0,57,0.00,,,1.71,WUHU216DAVISWMX,2013-01-27 22:19:00,
2013-01-27 17:24:00,25.6,12.5,28.41,ENE,71,0.0,3.0,57,0.00,,,1.71,WUHU216DAVISWMX,2013-01-27 22:24:00,
2013-01-27 17:29:00,25.4,12.7,28.41,ENE,71,0.0,3.0,58,0.00,,,1.71,WUHU216DAVISWMX,2013-01-27 22:29:00,
2013-01-27 17:34:00,25.3,12.6,28.41,ENE,71,0.0,4.0,58,0.00,,,1.71,WUHU216DAVISWMX,2013-01-27 22:34:00,
2013-01-27 17:39:00,24.9,12.6,28.41,ENE,71,4.0,5.0,59,0.00,,,1.71,WUHU216DAVISWMX,2013-01-27 22:39:00,
2013-01-27 17:44:00,24.8,12.5,28.41,ENE,71,3.0,5.0,59,0.00,,,1.71,WUHU216DAVISWMX,2013-01-27 22:44:00,
2013-01-27 17:49:00,24.5,12.2,28.41,ENE,61,0.0,5.0,59,0.00,,,1.71,WUHU216DAVISWMX,2013-01-27 22:49:00,
2013-01-27 17:54:00,24.4,12.9,28.40,ENE,61,1.0,5.0,61,0.00,,,1.71,WUHU216DAVISWMX,2013-01-27 22:54:00,
2013-01-27 17:59:00,24.3,12.8,28.40,ENE,59,5.0,5.0,61,0.00,,,1.71,WUHU216DAVISWMX,2013-01-27 22:59:00,
2013-01-27 18:04:00,24.2,12.3,28.40,NE,56,0.0,5.0,60,0.00,,,1.71,WUHU216DAVISWMX,2013-01-27 23:04:00,
2013-01-27 18:09:00,24.2,12.7,28.40,NE,56,0.0,4.0,61,0.00,,,1.71,WUHU216DAVISWMX,2013-01-27 23:09:00,
2013-01-27 18:14:00,24.3,12.8,28.41,NE,56,0.0,4.0,61,0.00,,,1.71,WUHU216DAVISWMX,2013-01-27 23:14:00,
2013-01-27 18:19:00,24.4,12.9,28.41,NE,56,0.0,5.0,61,0.00,,,1.71,WUHU216DAVISWMX,2013-01-27 23:19:00,
2013-01-27 18:24:00,24.4,12.5,28.41,ENE,59,3.0,6.0,60,0.00,,,1.71,WUHU216DAVISWMX,2013-01-27 23:24:00,
2013-01-27 18:29:00,24.4,12.9,28.42,ENE,70,0.0,7.0,61,0.00,,,1.71,WUHU216DAVISWMX,2013-01-27 23:29:00,
2013-01-27 18:34:00,24.4,12.9,28.41,NE,40,2.0,7.0,61,0.00,,,1.71,WUHU216DAVISWMX,2013-01-27 23:34:00,
2013-01-27 18:39:00,24.4,12.9,28.41,ENE,74,2.0,7.0,61,0.00,,,1.71,WUHU216DAVISWMX,2013-01-27 23:39:00,
2013-01-27 18:44:00,24.2,12.7,28.40,ENE,74,5.0,7.0,61,0.00,,,1.71,WUHU216DAVISWMX,2013-01-27 23:44:00,
2013-01-27 18:49:00,24.2,12.7,28.40,ENE,76,0.0,6.0,61,0.00,,,1.71,WUHU216DAVISWMX,2013-01-27 23:49:00,
2013-01-27 18:54:00,24.2,12.7,28.39,NE,53,3.0,8.0,61,0.00,,,1.71,WUHU216DAVISWMX,2013-01-27 23:54:00,
2013-01-27 18:59:00,24.1,12.6,28.39,ENE,64,5.0,8.0,61,0.00,,,1.71,WUHU216DAVISWMX,2013-01-27 23:59:00,
2013-01-27 19:04:00,24.2,12.7,28.40,NE,50,1.0,7.0,61,0.00,,,1.71,WUHU216DAVISWMX,2013-01-28 00:04:00,
2013-01-27 19:09:00,24.2,12.7,28.39,ENE,67,0.0,6.0,61,0.00,,,1.71,WUHU216DAVISWMX,2013-01-28 00:09:00,
2013-01-27 19:14:00,24.3,12.8,28.39,ENE,63,4.0,5.0,61,0.00,,,1.71,WUHU216DAVISWMX,2013-01-28 00:14:00,
2013-01-27 19:19:00,24.3,12.8,28.39,ENE,63,0.0,5.0,61,0.00,,,1.71,WUHU216DAVISWMX,2013-01-28 00:19:00,
2013-01-27 19:24:00,24.4,12.9,28.39,ENE,61,5.0,5.0,61,0.00,,,1.71,WUHU216DAVISWMX,2013-01-28 00:24:00,
2013-01-27 19:29:00,24.3,12.8,28.39,ENE,61,0.0,6.0,61,0.00,,,1.71,WUHU216DAVISWMX,2013-01-28 00:29:00,
2013-01-27 19:34:00,24.5,13.0,28.40,ENE,68,0.0,6.0,61,0.00,,,1.71,WUHU216DAVISWMX,2013-01-28 00:34:00,
2013-01-27 19:39:00,24.6,13.1,28.40,NE,54,4.0,6.0,61,0.00,,,1.71,WUHU216DAVISWMX,2013-01-28 00:39:00,
2013-01-27 19:44:00,24.7,13.2,28.40,ENE,61,4.0,6.0,61,0.00,,,1.71,WUHU216DAVISWMX,2013-01-28 00:44:00,
2013-01-27 19:49:00,24.6,13.1,28.40,NE,56,7.0,7.0,61,0.00,,,1.71,WUHU216DAVISWMX,2013-01-28 00:49:00,
2013-01-27 19:54:00,24.5,13.0,28.40,NE,54,7.0,8.0,61,0.00,,,1.71,WUHU216DAVISWMX,2013-01-28 00:54:00,
2013-01-27 19:59:00,24.5,13.0,28.39,ENE,65,1.0,9.0,61,0.00,,,1.71,WUHU216DAVISWMX,2013-01-28 00:59:00,
2013-01-27 20:04:00,24.3,13.2,28.40,ENE,66,2.0,9.0,62,0.00,,,1.71,WUHU216DAVISWMX,2013-01-28 01:04:00,
2013-01-27 20:09:00,24.3,13.6,28.40,East,81,0.0,5.0,63,0.00,,,1.71,WUHU216DAVISWMX,2013-01-28 01:09:00,
2013-01-27 20:14:00,24.3,13.6,28.40,East,83,0.0,5.0,63,0.00,,,1.71,WUHU216DAVISWMX,2013-01-28 01:14:00,
2013-01-27 20:19:00,24.3,13.6,28.40,ESE,106,0.0,6.0,63,0.00,,,1.71,WUHU216DAVISWMX,2013-01-28 01:19:00,
2013-01-27 20:24:00,24.6,13.5,28.40,ESE,102,0.0,7.0,62,0.00,,,1.71,WUHU216DAVISWMX,2013-01-28 01:24:00,
2013-01-27 20:29:00,24.8,13.7,28.41,ESE,104,4.0,7.0,62,0.00,,,1.71,WUHU216DAVISWMX,2013-01-28 01:29:00,
2013-01-27 20:34:00,24.7,13.6,28.41,ESE,103,0.0,4.0,62,0.00,,,1.71,WUHU216DAVISWMX,2013-01-28 01:34:00,
2013-01-27 20:39:00,24.7,13.9,28.41,East,95,0.0,4.0,63,0.00,,,1.71,WUHU216DAVISWMX,2013-01-28 01:39:00,
2013-01-27 20:44:00,24.7,13.6,28.40,East,95,4.0,6.0,62,0.00,,,1.71,WUHU216DAVISWMX,2013-01-28 01:44:00,
2013-01-27 20:49:00,24.8,14.0,28.40,East,97,0.0,6.0,63,0.00,,,1.71,WUHU216DAVISWMX,2013-01-28 01:49:00,
2013-01-27 20:54:00,24.6,13.8,28.40,East,89,0.0,5.0,63,0.00,,,1.71,WUHU216DAVISWMX,2013-01-28 01:54:00,
2013-01-27 20:59:00,24.6,13.8,28.39,ENE,74,3.0,5.0,63,0.00,,,1.71,WUHU216DAVISWMX,2013-01-28 01:59:00,
2013-01-27 21:04:00,24.5,13.8,28.39,ENE,78,3.0,8.0,63,0.00,,,1.71,WUHU216DAVISWMX,2013-01-28 02:04:00,
2013-01-27 21:09:00,24.6,13.5,28.40,ESE,107,0.0,8.0,62,0.00,,,1.71,WUHU216DAVISWMX,2013-01-28 02:09:00,
2013-01-27 21:14:00,24.6,13.8,28.40,ESE,115,3.0,7.0,63,0.00,,,1.71,WUHU216DAVISWMX,2013-01-28 02:14:00,
2013-01-27 21:19:00,24.5,14.1,28.40,East,99,0.0,6.0,64,0.00,,,1.71,WUHU216DAVISWMX,2013-01-28 02:19:00,
2013-01-27 21:24:00,24.6,13.8,28.40,East,100,2.0,5.0,63,0.00,,,1.71,WUHU216DAVISWMX,2013-01-28 02:24:00,
2013-01-27 21:29:00,24.5,13.8,28.39,East,99,0.0,3.0,63,0.00,,,1.71,WUHU216DAVISWMX,2013-01-28 02:29:00,
2013-01-27 21:34:00,24.6,13.8,28.39,East,99,0.0,1.0,63,0.00,,,1.71,WUHU216DAVISWMX,2013-01-28 02:34:00,
2013-01-27 21:39:00,24.6,13.8,28.39,East,100,0.0,0.0,63,0.00,,,1.71,WUHU216DAVISWMX,2013-01-28 02:39:00,
2013-01-27 21:44:00,24.6,13.8,28.39,East,100,0.0,0.0,63,0.00,,,1.71,WUHU216DAVISWMX,2013-01-28 02:44:00,
2013-01-27 21:49:00,24.6,13.8,28.39,East,100,0.0,0.0,63,0.00,,,1.71,WUHU216DAVISWMX,2013-01-28 02:49:00,
2013-01-27 21:54:00,24.6,13.8,28.39,East,100,0.0,0.0,63,0.00,,,1.71,WUHU216DAVISWMX,2013-01-28 02:54:00,
2013-01-27 21:57:00,24.5,13.4,28.40,East,100,0.0,0.0,62,0.00,,,1.71,WUHU216DAVISWMX,2013-01-28 02:57:00,
2013-01-27 21:59:00,24.5,13.4,28.40,East,100,0.0,0.0,62,0.00,,,1.71,WUHU216DAVISWMX,2013-01-28 02:59:00,
2013-01-27 22:04:00,24.5,13.4,28.40,East,100,0.0,0.0,62,0.00,,,1.71,WUHU216DAVISWMX,2013-01-28 03:04:00,
2013-01-27 22:26:00,24.3,13.6,28.40,NE,41,2.0,2.0,63,0.00,,,1.71,WUHU216DAVISWMX,2013-01-28 03:26:00,
2013-01-27 22:31:00,24.4,14.0,28.40,NE,52,6.0,6.0,64,0.00,,,1.71,WUHU216DAVISWMX,2013-01-28 03:31:00,
2013-01-27 22:36:00,24.4,13.7,28.40,ENE,58,2.0,7.0,63,0.00,,,1.71,WUHU216DAVISWMX,2013-01-28 03:36:00,
2013-01-27 22:41:00,24.4,13.7,28.40,ENE,77,4.0,9.0,63,0.00,,,1.71,WUHU216DAVISWMX,2013-01-28 03:41:00,
2013-01-27 22:46:00,24.4,13.7,28.40,East,79,0.0,9.0,63,0.00,,,1.71,WUHU216DAVISWMX,2013-01-28 03:46:00,
2013-01-27 22:51:00,24.4,13.7,28.39,East,79,2.0,6.0,63,0.00,,,1.71,WUHU216DAVISWMX,2013-01-28 03:51:00,
2013-01-27 22:56:00,24.3,13.2,28.39,East,92,4.0,7.0,62,0.00,,,1.71,WUHU216DAVISWMX,2013-01-28 03:56:00,
2013-01-27 23:01:00,24.1,13.4,28.39,ENE,63,2.0,7.0,63,0.00,,,1.71,WUHU216DAVISWMX,2013-01-28 04:01:00,
2013-01-27 23:06:00,24.1,13.4,28.39,ENE,63,0.0,6.0,63,0.00,,,1.71,WUHU216DAVISWMX,2013-01-28 04:06:00,
2013-01-27 23:11:00,24.1,13.4,28.38,ENE,63,0.0,4.0,63,0.00,,,1.71,WUHU216DAVISWMX,2013-01-28 04:11:00,
2013-01-27 23:16:00,24.1,13.4,28.38,ENE,63,0.0,0.0,63,0.00,,,1.71,WUHU216DAVISWMX,2013-01-28 04:16:00,
2013-01-27 23:21:00,24.1,13.4,28.37,ENE,63,0.0,0.0,63,0.00,,,1.71,WUHU216DAVISWMX,2013-01-28 04:21:00,
2013-01-27 23:26:00,24.1,13.4,28.36,ENE,63,0.0,0.0,63,0.00,,,1.71,WUHU216DAVISWMX,2013-01-28 04:26:00,
2013-01-27 23:31:00,24.1,13.4,28.36,ENE,63,0.0,0.0,63,0.00,,,1.71,WUHU216DAVISWMX,2013-01-28 04:31:00,
2013-01-27 23:32:00,24.1,13.4,28.36,ENE,63,0.0,0.0,63,0.00,,,1.71,WUHU216DAVISWMX,2013-01-28 04:32:00,
2013-01-27 23:36:00,24.1,13.4,28.36,ENE,63,0.0,0.0,63,0.00,,,1.71,WUHU216DAVISWMX,2013-01-28 04:36:00,
2013-01-27 23:41:00,24.1,13.4,28.36,ENE,63,0.0,0.0,63,0.00,,,1.71,WUHU216DAVISWMX,2013-01-28 04:41:00,